SH789 UNKL-UNNT

Flight info

Callsign SH789
Flight time N/A
Altitude 36000
Route APRUS2F APRUS B926 NATIR NATIR1K
Aircraft A319/M-SDE3FGHIRWY/LB1

Departure

Time 2026-05-01 09:13
Airport Krasnoyarsk International Airport (UNKL)

Arrival

Time N/A
Airport Novosibirsk Tolmachevo Airport (UNNT)
Time Latitude Longitude Altitude Speed Heading
2026-05-01 08:36 56.17924 92.48616 951 ft 0 kts 21°
2026-05-01 08:55 56.17923 92.48615 951 ft 1 kts 21°
2026-05-01 08:55 56.17918 92.48614 951 ft 3 kts 32°
2026-05-01 08:55 56.17901 92.48598 949 ft 3 kts 29°
2026-05-01 08:55 56.17897 92.48594 949 ft 0 kts 32°
2026-05-01 08:56 56.17893 92.48589 949 ft 1 kts 20°
2026-05-01 08:56 56.17885 92.48584 951 ft 1 kts 16°
2026-05-01 08:56 56.17868 92.48581 949 ft 2 kts 341°
2026-05-01 08:56 56.17853 92.48592 949 ft 2 kts 326°
2026-05-01 08:57 56.17845 92.48607 951 ft 0 kts 295°
2026-05-01 09:02 56.17845 92.48606 951 ft 1 kts 295°
2026-05-01 09:03 56.17848 92.48594 949 ft 2 kts 295°
2026-05-01 09:03 56.17858 92.48550 951 ft 6 kts 285°
2026-05-01 09:03 56.17839 92.48463 950 ft 10 kts 218°
2026-05-01 09:03 56.17771 92.48407 951 ft 8 kts 195°
2026-05-01 09:04 56.17720 92.48473 951 ft 12 kts 114°
2026-05-01 09:04 56.17681 92.48633 951 ft 16 kts 110°
2026-05-01 09:04 56.17632 92.48842 950 ft 20 kts 113°
2026-05-01 09:04 56.17571 92.49098 950 ft 24 kts 113°
2026-05-01 09:05 56.17499 92.49403 949 ft 28 kts 114°
2026-05-01 09:05 56.17425 92.49705 949 ft 27 kts 113°
2026-05-01 09:05 56.17347 92.50031 951 ft 30 kts 113°
2026-05-01 09:05 56.17259 92.50395 951 ft 34 kts 113°
2026-05-01 09:06 56.17163 92.50799 950 ft 34 kts 113°
2026-05-01 09:06 56.17097 92.51081 950 ft 20 kts 112°
2026-05-01 09:06 56.17033 92.51354 951 ft 27 kts 112°
2026-05-01 09:06 56.16966 92.51637 950 ft 19 kts 114°
2026-05-01 09:07 56.16926 92.51798 951 ft 11 kts 114°
2026-05-01 09:07 56.16885 92.51935 950 ft 10 kts 148°
2026-05-01 09:07 56.16800 92.51997 951 ft 12 kts 160°
2026-05-01 09:07 56.16785 92.52006 951 ft 0 kts 160°
2026-05-01 09:09 56.16785 92.52007 951 ft 1 kts 160°
2026-05-01 09:09 56.16759 92.52023 951 ft 7 kts 160°
2026-05-01 09:09 56.16692 92.52046 952 ft 12 kts 191°
2026-05-01 09:10 56.16669 92.51949 952 ft 0 kts 296°
2026-05-01 09:12 56.16669 92.51948 952 ft 1 kts 296°
2026-05-01 09:13 56.16736 92.51679 952 ft 65 kts 293°
2026-05-01 09:13 56.17035 92.50427 951 ft 149 kts 293°
2026-05-01 09:13 56.17498 92.48556 1444 ft 173 kts 294°
2026-05-01 09:13 56.18009 92.46441 2110 ft 196 kts 292°
2026-05-01 09:14 56.18572 92.44045 2867 ft 221 kts 291°
2026-05-01 09:14 56.19200 92.41348 3605 ft 246 kts 292°
2026-05-01 09:14 56.19881 92.38438 4632 ft 257 kts 292°
2026-05-01 09:14 56.20595 92.35398 5526 ft 269 kts 292°
2026-05-01 09:15 56.21317 92.32336 5856 ft 266 kts 292°
2026-05-01 09:15 56.21741 92.29126 5980 ft 266 kts 267°
2026-05-01 09:15 56.21372 92.25893 6004 ft 265 kts 251°
2026-05-01 09:15 56.20690 92.22817 6007 ft 266 kts 246°
2026-05-01 09:16 56.19915 92.19788 6006 ft 268 kts 245°
2026-05-01 09:16 56.19136 92.16746 6001 ft 268 kts 246°
2026-05-01 09:16 56.18384 92.13678 6091 ft 269 kts 247°
2026-05-01 09:17 56.16960 92.07441 8085 ft 272 kts 249°
2026-05-01 09:17 56.16262 92.04262 9112 ft 276 kts 250°
2026-05-01 09:17 56.14826 91.97652 10646 ft 302 kts 251°
2026-05-01 09:18 56.14044 91.94042 11272 ft 315 kts 251°
2026-05-01 09:18 56.12432 91.86628 13086 ft 323 kts 252°
2026-05-01 09:19 56.11056 91.80348 14524 ft 328 kts 252°
2026-05-01 09:19 56.10215 91.76516 15312 ft 332 kts 252°
2026-05-01 09:19 56.09368 91.72654 16114 ft 335 kts 252°
2026-05-01 09:20 56.07646 91.64808 17654 ft 342 kts 253°
2026-05-01 09:20 56.05885 91.56848 18108 ft 344 kts 252°
2026-05-01 09:21 56.04112 91.48894 18119 ft 344 kts 252°
2026-05-01 09:21 56.03227 91.44921 18112 ft 344 kts 252°
2026-05-01 09:21 56.01453 91.36960 18339 ft 348 kts 252°
2026-05-01 09:22 55.99639 91.28866 19675 ft 353 kts 253°
2026-05-01 09:22 55.98068 91.20529 20923 ft 356 kts 263°
2026-05-01 09:23 55.97572 91.16171 21551 ft 359 kts 263°
2026-05-01 09:23 55.96541 91.07364 22783 ft 365 kts 262°
2026-05-01 09:24 55.95480 90.98403 23935 ft 372 kts 263°
2026-05-01 09:24 55.94939 90.93870 24429 ft 375 kts 262°
2026-05-01 09:24 55.93842 90.84710 25423 ft 380 kts 263°
2026-05-01 09:25 55.92728 90.75439 26378 ft 385 kts 263°
2026-05-01 09:25 55.91589 90.66055 27305 ft 389 kts 263°
2026-05-01 09:26 55.91014 90.61322 27765 ft 392 kts 263°
2026-05-01 09:26 55.89849 90.51786 28676 ft 396 kts 262°
2026-05-01 09:26 55.89257 90.46980 29123 ft 398 kts 262°
2026-05-01 09:27 55.88057 90.37288 29967 ft 403 kts 262°
2026-05-01 09:27 55.87450 90.32395 30342 ft 406 kts 262°
2026-05-01 09:27 55.86839 90.27481 30694 ft 408 kts 262°
2026-05-01 09:28 55.86222 90.22533 31039 ft 410 kts 262°
2026-05-01 09:28 55.85600 90.17576 31381 ft 412 kts 262°
2026-05-01 09:28 55.84971 90.12588 31723 ft 414 kts 262°
2026-05-01 09:28 55.84338 90.07603 32179 ft 412 kts 262°
2026-05-01 09:29 55.83079 89.97697 33171 ft 408 kts 261°
2026-05-01 09:29 55.82453 89.92778 33670 ft 407 kts 261°
2026-05-01 09:30 55.81194 89.83008 34578 ft 404 kts 261°
2026-05-01 09:30 55.80567 89.78153 34967 ft 403 kts 261°
2026-05-01 09:30 55.79317 89.68456 35727 ft 402 kts 261°
2026-05-01 09:31 55.78692 89.63620 36017 ft 402 kts 261°
2026-05-01 09:31 55.78065 89.58809 36062 ft 397 kts 261°
2026-05-01 09:32 55.76179 89.44587 36077 ft 393 kts 261°
2026-05-01 09:32 55.74302 89.30431 36077 ft 393 kts 261°
2026-05-01 09:33 55.73040 89.21008 36074 ft 393 kts 261°
2026-05-01 09:34 55.71129 89.06876 36077 ft 392 kts 261°
2026-05-01 09:34 55.69208 88.92772 36072 ft 392 kts 261°
2026-05-01 09:35 55.67292 88.78680 36051 ft 393 kts 261°
2026-05-01 09:36 55.65995 88.69284 36056 ft 393 kts 260°
2026-05-01 09:36 55.64693 88.59947 36062 ft 394 kts 260°
2026-05-01 09:37 55.63384 88.50540 36067 ft 394 kts 260°
2026-05-01 09:37 55.61403 88.36422 36072 ft 394 kts 260°
2026-05-01 09:38 55.59395 88.22305 36064 ft 394 kts 260°
2026-05-01 09:39 55.57379 88.08214 36070 ft 394 kts 259°
2026-05-01 09:39 55.56027 87.98825 36076 ft 394 kts 259°
2026-05-01 09:40 55.53974 87.84742 36078 ft 394 kts 259°
2026-05-01 09:41 55.52605 87.75376 36067 ft 394 kts 259°
2026-05-01 09:41 55.50534 87.61331 36066 ft 394 kts 259°
2026-05-01 09:42 55.49146 87.51971 36063 ft 395 kts 259°
2026-05-01 09:43 55.46331 87.33226 36074 ft 396 kts 258°
2026-05-01 09:43 55.44903 87.23849 36075 ft 396 kts 258°
2026-05-01 09:44 55.42754 87.09855 36071 ft 397 kts 258°
2026-05-01 09:45 55.41293 87.00417 36076 ft 397 kts 258°
2026-05-01 09:45 55.39124 86.86422 36079 ft 397 kts 258°
2026-05-01 09:46 55.37663 86.77025 36082 ft 398 kts 258°
2026-05-01 09:46 55.36188 86.67657 36073 ft 398 kts 257°
2026-05-01 09:47 55.34709 86.58310 36080 ft 398 kts 257°
2026-05-01 09:47 55.33222 86.48962 36083 ft 398 kts 257°
2026-05-01 09:48 55.31724 86.39618 36082 ft 398 kts 257°
2026-05-01 09:48 55.30223 86.30287 36085 ft 397 kts 257°
2026-05-01 09:49 55.28710 86.20939 35921 ft 399 kts 257°
2026-05-01 09:49 55.27950 86.16273 35666 ft 398 kts 257°
2026-05-01 09:49 55.27233 86.11594 35408 ft 396 kts 261°
2026-05-01 09:50 55.26857 86.06814 35161 ft 394 kts 267°
2026-05-01 09:50 55.26641 86.02031 34917 ft 393 kts 267°
2026-05-01 09:50 55.26421 85.97263 34672 ft 392 kts 267°
2026-05-01 09:50 55.26196 85.92519 34433 ft 390 kts 266°
2026-05-01 09:51 55.25969 85.87798 34176 ft 387 kts 266°
2026-05-01 09:51 55.25739 85.83130 33692 ft 383 kts 266°
2026-05-01 09:51 55.25509 85.78514 33212 ft 379 kts 266°
2026-05-01 09:51 55.25279 85.73935 32735 ft 375 kts 266°
2026-05-01 09:52 55.25049 85.69411 32263 ft 371 kts 266°
2026-05-01 09:52 55.24821 85.64922 31801 ft 368 kts 266°
2026-05-01 09:52 55.24596 85.60475 31345 ft 365 kts 266°
2026-05-01 09:52 55.24373 85.56071 30897 ft 362 kts 266°
2026-05-01 09:53 55.24152 85.51699 30465 ft 359 kts 266°
2026-05-01 09:53 55.23932 85.47360 30012 ft 356 kts 266°
2026-05-01 09:53 55.23709 85.43041 29564 ft 352 kts 266°
2026-05-01 09:53 55.23487 85.38796 29162 ft 348 kts 266°
2026-05-01 09:54 55.23264 85.34589 28760 ft 345 kts 266°
2026-05-01 09:54 55.23038 85.30433 28372 ft 341 kts 266°
2026-05-01 09:54 55.22818 85.26373 27992 ft 338 kts 266°
2026-05-01 09:54 55.22596 85.22311 27597 ft 334 kts 266°
2026-05-01 09:55 55.22375 85.18283 27211 ft 330 kts 266°
2026-05-01 09:55 55.22157 85.14304 26819 ft 327 kts 266°
2026-05-01 09:55 55.21942 85.10353 26420 ft 324 kts 266°
2026-05-01 09:55 55.21728 85.06448 26033 ft 321 kts 266°
2026-05-01 09:56 55.21516 85.02580 25618 ft 318 kts 266°
2026-05-01 09:56 55.21304 84.98732 25209 ft 316 kts 266°
2026-05-01 09:56 55.21091 84.94912 24811 ft 314 kts 266°
2026-05-01 09:56 55.20876 84.91115 24396 ft 313 kts 266°
2026-05-01 09:57 55.20659 84.87336 23973 ft 312 kts 266°
2026-05-01 09:57 55.20440 84.83564 23541 ft 311 kts 266°
2026-05-01 09:57 55.20222 84.79810 23086 ft 309 kts 266°
2026-05-01 09:57 55.20004 84.76065 22678 ft 307 kts 266°
2026-05-01 09:58 55.19788 84.72366 22276 ft 305 kts 266°
2026-05-01 09:58 55.19465 84.68712 21879 ft 304 kts 258°
2026-05-01 09:58 55.18874 84.65170 21487 ft 303 kts 256°